| time (UTC) | temp F | wind direction | speed MPH | gust MPH | rain 1hr in | rain 24hr in | rain mn in | humidity % | barometer mb |
| 20260903041514 | 57 | 153 | 0.0 | 0.0 | 0.00 | 0.14 | 0.15 | 87 | 1010.2 |
| 20260903040238 | 56 | 294 | 0.0 | 0.0 | 0.00 | 0.14 | 0.15 | 86 | 1009.8 |
| 20260903035028 | 56 | 306 | 0.0 | 0.0 | 0.00 | 0.14 | 0.15 | 88 | 1009.5 |
| 20260903032443 | 56 | 265 | 6.0 | 18.0 | 0.31 | 0.12 | 0.13 | 87 | 1009.3 |
| 20260903024559 | 65 | 137 | 0.0 | 0.0 | 0.00 | 0.06 | 0.06 | 59 | 1007.5 |
| 20260903023354 | 65 | 148 | 0.0 | 5.0 | 0.00 | 0.06 | 0.06 | 59 | 1007.6 |
| 20260903022130 | 65 | 134 | 0.0 | 0.0 | 0.00 | 0.06 | 0.06 | 58 | 1007.7 |
| 20260903015709 | 66 | 100 | 0.0 | 0.0 | 0.00 | 0.06 | 0.06 | 56 | 1007.6 |
| 20260903013108 | 67 | 102 | 0.0 | 0.0 | 0.00 | 0.06 | 0.06 | 54 | 1007.8 |
| 20260903011904 | 66 | 105 | 0.0 | 0.0 | 0.00 | 0.06 | 0.06 | 55 | 1007.9 |
| 20260903005330 | 67 | 107 | 0.0 | 0.0 | 0.00 | 0.06 | 0.06 | 55 | 1008.0 |
| 20260903004057 | 67 | 130 | 0.0 | 0.0 | 0.00 | 0.06 | 0.06 | 53 | 1008.2 |
| 20260903001636 | 66 | 134 | 0.0 | 0.0 | 0.00 | 0.06 | 0.06 | 54 | 1008.3 |
| 20260902235126 | 67 | 129 | 0.0 | 0.0 | 0.00 | 0.06 | 0.06 | 54 | 1008.6 |
| 20260902233934 | 66 | 143 | 0.0 | 0.0 | 0.00 | 0.06 | 0.06 | 55 | 1008.6 |
| 20260902232732 | 66 | 70 | 0.0 | 1.0 | 0.00 | 0.06 | 0.06 | 56 | 1008.6 |
| 20260902231603 | 66 | 88 | 0.0 | 0.0 | 0.00 | 0.06 | 0.06 | 56 | 1008.7 |
| 20260902230323 | 66 | 146 | 0.0 | 0.0 | 0.00 | 0.06 | 0.06 | 58 | 1009.0 |
| 20260902225119 | 65 | 144 | 0.0 | 0.0 | 0.00 | 0.06 | 0.06 | 59 | 1009.2 |
| 20260902223840 | 65 | 104 | 0.0 | 0.0 | 0.00 | 0.06 | 0.06 | 60 | 1009.2 |
| 20260902222610 | 64 | 94 | 0.0 | 0.0 | 0.00 | 0.06 | 0.06 | 61 | 1009.2 |
| 20260902221349 | 64 | 75 | 0.0 | 0.0 | 0.00 | 0.06 | 0.06 | 62 | 1009.3 |
| 20260902220132 | 63 | 139 | 0.0 | 12.0 | 0.00 | 0.06 | 0.06 | 63 | 1009.4 |
| 20260902214953 | 63 | 144 | 0.0 | 1.0 | 0.00 | 0.06 | 0.06 | 65 | 1009.5 |
| 20260902213751 | 62 | 140 | 0.0 | 7.0 | 0.00 | 0.06 | 0.06 | 66 | 1009.7 |
| 20260902212524 | 62 | 89 | 0.0 | 0.0 | 0.00 | 0.06 | 0.06 | 67 | 1009.8 |
| 20260902211302 | 62 | 130 | 0.0 | 0.0 | 0.00 | 0.06 | 0.06 | 69 | 1009.9 |
| 20260902204717 | 60 | 65 | 0.0 | 0.0 | 0.00 | 0.06 | 0.06 | 77 | 1010.2 |
| 20260902203445 | 59 | 162 | 0.0 | 7.0 | 0.00 | 0.06 | 0.06 | 78 | 1010.2 |
| 20260902200937 | 57 | 121 | 0.0 | 3.0 | 0.00 | 0.06 | 0.06 | 80 | 1010.5 |
| 20260902195742 | 56 | 111 | 0.0 | 5.0 | 0.00 | 0.06 | 0.06 | 85 | 1010.5 |
| 20260902193237 | 55 | 124 | 0.0 | 5.0 | 0.00 | 0.06 | 0.06 | 87 | 1011.0 |
| 20260902192002 | 54 | 138 | 0.0 | 0.0 | 0.04 | 0.06 | 0.06 | 87 | 1011.1 |
| 20260902190807 | 54 | 134 | 0.0 | 0.0 | 0.06 | 0.06 | 0.06 | 87 | 1011.0 |
| 20260902185632 | 54 | 128 | 0.0 | 5.0 | 0.12 | 0.04 | 0.05 | 85 | 1011.1 |
| 20260902184438 | 55 | 163 | 0.0 | 4.0 | 0.09 | 0.03 | 0.03 | 83 | 1011.2 |
| 20260902183230 | 56 | 172 | 0.0 | 3.0 | 0.00 | 0.01 | 0.01 | 80 | 1010.9 |
| 20260902182023 | 56 | 171 | 0.0 | 0.0 | 0.00 | 0.00 | 0.01 | 77 | 1010.7 |
| 20260902180814 | 57 | 148 | 2.0 | 16.0 | 0.00 | 0.00 | 0.00 | 75 | 1010.6 |
| 20260902174311 | 58 | 173 | 0.0 | 6.0 | 0.00 | 0.00 | 0.00 | 70 | 1010.5 |
| 20260902173039 | 58 | 167 | 0.0 | 6.0 | 0.00 | 0.00 | 0.00 | 70 | 1010.3 |
| 20260902171901 | 58 | 169 | 0.0 | 4.0 | 0.00 | 0.00 | 0.00 | 69 | 1010.2 |
| 20260902170716 | 58 | 188 | 0.0 | 6.0 | 0.00 | 0.00 | 0.00 | 68 | 1009.9 |
| 20260902165523 | 58 | 182 | 0.0 | 1.0 | 0.00 | 0.00 | 0.00 | 69 | 1010.1 |
| 20260902164256 | 58 | 186 | 1.0 | 10.0 | 0.00 | 0.00 | 0.00 | 69 | 1010.1 |
| 20260902163021 | 58 | 186 | 0.0 | 2.0 | 0.00 | 0.00 | 0.00 | 70 | 1009.8 |
| 20260902161754 | 58 | 164 | 0.0 | 3.0 | 0.00 | 0.00 | 0.00 | 68 | 1009.7 |
| 20260902160558 | 58 | 190 | 1.0 | 14.0 | 0.00 | 0.00 | 0.00 | 69 | 1009.9 |
| 20260902154035 | 58 | 142 | 0.0 | 0.0 | 0.00 | 0.00 | 0.00 | 70 | 1009.8 |
| 20260902151540 | 58 | 101 | 0.0 | 0.0 | 0.00 | 0.00 | 0.00 | 69 | 1009.2 |
| 20260902150406 | 58 | 355 | 0.0 | 0.0 | 0.00 | 0.00 | 0.00 | 68 | 1009.2 |
| 20260902145136 | 58 | 355 | 0.0 | 0.0 | 0.00 | 0.00 | 0.00 | 67 | 1009.2 |
| 20260902142624 | 57 | 28 | 0.0 | 0.0 | 0.00 | 0.00 | 0.00 | 69 | 1009.1 |
| 20260902141453 | 57 | 347 | 0.0 | 0.0 | 0.00 | 0.00 | 0.00 | 70 | 1009.1 |
| 20260902140247 | 56 | 74 | 0.0 | 0.0 | 0.00 | 0.00 | 0.00 | 69 | 1009.1 |
| 20260902135102 | 56 | 49 | 0.0 | 0.0 | 0.00 | 0.00 | 0.00 | 69 | 1009.0 |
| 20260902133857 | 56 | 49 | 0.0 | 0.0 | 0.00 | 0.00 | 0.00 | 69 | 1008.6 |
| 20260902132626 | 56 | 55 | 0.0 | 0.0 | 0.00 | 0.00 | 0.00 | 72 | 1008.3 |
| 20260902131424 | 56 | 23 | 0.0 | 0.0 | 0.00 | 0.00 | 0.00 | 69 | 1008.3 |
| 20260902123629 | 56 | 23 | 0.0 | 0.0 | 0.00 | 0.00 | 0.00 | 71 | 1007.8 |
| 20260902122430 | 57 | 23 | 0.0 | 0.0 | 0.00 | 0.00 | 0.00 | 71 | 1007.8 |
| 20260902115926 | 57 | 28 | 0.0 | 0.0 | 0.00 | 0.00 | 0.00 | 73 | 1007.6 |
| 20260902114731 | 57 | 28 | 0.0 | 0.0 | 0.00 | 0.00 | 0.00 | 74 | 1007.4 |
| 20260902113546 | 57 | 63 | 0.0 | 0.0 | 0.00 | 0.00 | 0.00 | 75 | 1007.5 |
| 20260902112329 | 57 | 144 | 0.0 | 0.0 | 0.00 | 0.00 | 0.00 | 76 | 1007.5 |
| 20260902111158 | 58 | 153 | 0.0 | 0.0 | 0.00 | 0.00 | 0.00 | 75 | 1007.3 |
| 20260902105928 | 57 | 153 | 0.0 | 0.0 | 0.00 | 0.00 | 0.00 | 79 | 1007.3 |
| 20260902103441 | 55 | 241 | 0.0 | 0.0 | 0.00 | 0.00 | 0.00 | 81 | 1007.3 |
| 20260902102214 | 56 | 241 | 0.0 | 0.0 | 0.00 | 0.00 | 0.00 | 81 | 1007.3 |
| 20260902101000 | 56 | 241 | 0.0 | 0.0 | 0.00 | 0.00 | 0.00 | 81 | 1007.2 |
| 20260902095827 | 57 | 241 | 0.0 | 0.0 | 0.00 | 0.00 | 0.00 | 80 | 1007.3 |
| 20260902094601 | 58 | 142 | 0.0 | 0.0 | 0.00 | 0.00 | 0.00 | 80 | 1007.1 |
| 20260902093419 | 58 | 142 | 0.0 | 0.0 | 0.00 | 0.00 | 0.00 | 80 | 1007.0 |
| 20260902092150 | 58 | 144 | 0.0 | 0.0 | 0.00 | 0.00 | 0.00 | 80 | 1007.0 |
| 20260902090919 | 58 | 146 | 0.0 | 0.0 | 0.00 | 0.00 | 0.00 | 80 | 1007.1 |
| 20260902085709 | 59 | 146 | 0.0 | 0.0 | 0.00 | 0.00 | 0.00 | 79 | 1007.1 |
| 20260902084453 | 59 | 146 | 0.0 | 0.0 | 0.00 | 0.00 | 0.00 | 79 | 1007.2 |
| 20260902083233 | 59 | 147 | 0.0 | 0.0 | 0.00 | 0.00 | 0.00 | 77 | 1007.0 |
| 20260902082046 | 59 | 147 | 0.0 | 0.0 | 0.00 | 0.00 | 0.00 | 75 | 1007.2 |
| 20260902075525 | 60 | 146 | 0.0 | 0.0 | 0.00 | 0.00 | 0.00 | 75 | 1007.1 |
| 20260902074330 | 60 | 147 | 0.0 | 0.0 | 0.00 | 0.00 | 0.00 | 75 | 1007.1 |
| 20260902073120 | 60 | 147 | 0.0 | 0.0 | 0.00 | 0.00 | 0.00 | 75 | 1007.0 |
| 20260902070600 | 61 | 148 | 0.0 | 0.0 | 0.00 | 0.00 | 0.00 | 73 | 1007.1 |
| 20260902065427 | 61 | 148 | 0.0 | 0.0 | 0.00 | 0.00 | 0.00 | 73 | 1007.2 |
| 20260902062838 | 61 | 148 | 0.0 | 0.0 | 0.00 | 0.00 | 0.00 | 71 | 1007.4 |
| 20260902054959 | 63 | 148 | 0.0 | 0.0 | 0.00 | 0.00 | 0.00 | 65 | 1007.2 |
| 20260902053730 | 64 | 148 | 0.0 | 0.0 | 0.00 | 0.00 | 0.00 | 62 | 1007.3 |
| 20260902052516 | 65 | 148 | 0.0 | 0.0 | 0.00 | 0.00 | 0.00 | 60 | 1007.4 |
| 20260902051239 | 65 | 148 | 0.0 | 0.0 | 0.00 | 0.00 | 0.00 | 59 | 1007.5 |
| 20260902050105 | 65 | 148 | 0.0 | 0.0 | 0.00 | 0.00 | 0.00 | 57 | 1007.5 |
| 20260902044926 | 65 | 150 | 0.0 | 0.0 | 0.00 | 0.00 | 0.00 | 57 | 1007.4 |
| 20260902043732 | 66 | 163 | 0.0 | 0.0 | 0.00 | 0.00 | 0.00 | 56 | 1007.4 |
| 20260902042540 | 66 | 163 | 0.0 | 0.0 | 0.00 | 0.00 | 0.00 | 56 | 1007.3 |